This is the latest recevied weather packets stored in our database for station/object KC8SWY-15. If no packets are shown the sender has not sent any weather packets the latest 10 day(s).
| Time | Temp. | Humidity | Pressure | Rain* | Wind** | Luminosity | Snow |
|---|---|---|---|---|---|---|---|
| 1778031867 | 7.78° C | 72% | 1009.3 hPa | 0 mm | - | - | - |
| 1778031567 | 7.78° C | 71% | 1009.4 hPa | 0 mm | - | - | - |
| 1778031267 | 7.78° C | 71% | 1009.3 hPa | 0 mm | - | - | - |
| 1778030967 | 7.78° C | 67% | 1009.3 hPa | 0 mm | - | - | - |
| 1778030667 | 7.78° C | 66% | 1009.2 hPa | 0 mm | - | - | - |
| 1778030367 | 8.33° C | 65% | 1009 hPa | 0 mm | - | - | - |
| 1778030067 | 8.33° C | 66% | 1008.9 hPa | 0 mm | - | - | - |
| 1778029767 | 8.33° C | 68% | 1009 hPa | 0 mm | - | - | - |
| 1778029467 | 8.33° C | 63% | 1009.2 hPa | 0 mm | - | - | - |
| 1778029167 | 8.33° C | 60% | 1009 hPa | 0 mm | - | - | - |
| 1778028867 | 8.89° C | 63% | 1009 hPa | 0 mm | - | - | - |
| 1778028567 | 8.89° C | 63% | 1008.9 hPa | 0 mm | - | - | - |
| 1778028267 | 8.89° C | 59% | 1009 hPa | 0 mm | - | - | - |
| 1778027967 | 9.44° C | 64% | 1009 hPa | 0 mm | - | - | - |
| 1778027667 | 9.44° C | 61% | 1009 hPa | 0 mm | - | - | - |
| 1778027368 | 10° C | 56% | 1009 hPa | 0 mm | - | - | - |
| 1778027067 | 10° C | 54% | 1009 hPa | 0 mm | - | - | - |
| 1778026767 | 10° C | 51% | 1009 hPa | 0 mm | - | - | - |
| 1778026467 | 10° C | 49% | 1009 hPa | 0 mm | - | - | - |
| 1778026168 | 10° C | 50% | 1009 hPa | 0 mm | - | - | - |
| 1778025867 | 10° C | 50% | 1009.1 hPa | 0 mm | - | - | - |
| 1778025568 | 10° C | 52% | 1009.2 hPa | 0 mm | - | - | - |
| 1778025267 | 10° C | 51% | 1009.2 hPa | 0 mm | - | - | - |
| 1778024968 | 10° C | 50% | 1009.2 hPa | 0 mm | - | - | - |
| 1778024668 | 10° C | 49% | 1009.2 hPa | 0 mm | - | - | - |
* Rain latest hour (hover to see other rain measurements)
** Current wind speed in m/s (hover to see current wind gust speed)